[Date Prev][Date Next][Thread Prev][Thread Next] - [Date Index][Thread Index][Author Index]

2 Line ISS Keps 6-18



ISS
1 25544U 98067A   05168.99031250  .00015537  00000-0  11604-3 0  7117
2 25544 051.6460 256.7883 0004067 268.5239 084.2223 15.72927737375809
----
Via the sarex mailing list at AMSAT.ORG courtesy of AMSAT-NA.
To unsubscribe, send "unsubscribe sarex" to Majordomo@amsat.org



AMSAT Top AMSAT Home